TimeEDT,TemperatureF,Dew PointF,Humidity,Sea Level PressureIn,VisibilityMPH,Wind Direction,Wind SpeedMPH,Gust SpeedMPH,PrecipitationIn,Events,Conditions,WindDirDegrees,DateUTC
12:56 AM,39.9,37.9,93,30.03,10.0,WNW,5.8,-,N/A,,Partly Cloudy,290,2013-05-12 04:56:00
1:56 AM,37.9,37.0,97,30.03,10.0,West,5.8,-,N/A,,Partly Cloudy,270,2013-05-12 05:56:00
2:56 AM,39.0,36.0,89,30.02,10.0,West,6.9,-,N/A,,Clear,280,2013-05-12 06:56:00
3:56 AM,39.0,36.0,89,30.02,10.0,West,8.1,-,N/A,,Clear,270,2013-05-12 07:56:00
4:56 AM,37.9,35.1,89,30.02,10.0,West,6.9,-,N/A,,Clear,270,2013-05-12 08:56:00
5:56 AM,37.0,34.0,89,30.02,10.0,West,8.1,-,N/A,,Clear,260,2013-05-12 09:56:00
6:56 AM,39.0,34.0,82,30.03,10.0,West,9.2,-,N/A,,Clear,280,2013-05-12 10:56:00
7:56 AM,42.1,34.0,73,30.05,10.0,West,9.2,-,N/A,,Clear,280,2013-05-12 11:56:00
8:56 AM,44.1,33.1,65,30.06,10.0,NW,11.5,-,N/A,,Clear,310,2013-05-12 12:56:00
9:56 AM,46.0,33.1,61,30.07,10.0,WNW,15.0,-,N/A,,Scattered Clouds,290,2013-05-12 13:56:00
10:56 AM,48.0,32.0,54,30.07,10.0,West,17.3,27.6,N/A,,Scattered Clouds,270,2013-05-12 14:56:00
11:56 AM,48.0,30.9,52,30.09,10.0,West,18.4,25.3,N/A,,Mostly Cloudy,280,2013-05-12 15:56:00
12:56 PM,48.9,30.0,48,30.09,10.0,WNW,17.3,27.6,N/A,,Overcast,300,2013-05-12 16:56:00
1:56 PM,51.1,30.9,46,30.10,10.0,WNW,16.1,23.0,N/A,,Mostly Cloudy,300,2013-05-12 17:56:00
2:56 PM,51.1,30.9,46,30.11,10.0,WNW,17.3,23.0,N/A,,Mostly Cloudy,300,2013-05-12 18:56:00
3:56 PM,51.1,30.9,46,30.10,10.0,West,16.1,23.0,N/A,,Mostly Cloudy,270,2013-05-12 19:56:00
4:56 PM,52.0,30.9,45,30.10,10.0,WNW,17.3,25.3,N/A,,Mostly Cloudy,290,2013-05-12 20:56:00
5:56 PM,52.0,28.9,41,30.10,10.0,West,15.0,-,N/A,,Mostly Cloudy,280,2013-05-12 21:56:00
6:56 PM,52.0,28.9,41,30.09,10.0,WNW,11.5,23.0,N/A,,Mostly Cloudy,300,2013-05-12 22:56:00
7:56 PM,50.0,28.9,44,30.09,10.0,NW,9.2,-,N/A,,Mostly Cloudy,310,2013-05-12 23:56:00
8:56 PM,46.9,30.0,52,30.10,10.0,WNW,4.6,-,N/A,,Mostly Cloudy,300,2013-05-13 00:56:00
9:56 PM,46.0,30.9,56,30.12,10.0,West,3.5,-,N/A,,Scattered Clouds,280,2013-05-13 01:56:00
10:56 PM,46.0,32.0,58,30.14,10.0,Calm,Calm,-,N/A,,Mostly Cloudy,0,2013-05-13 02:56:00
11:56 PM,45.0,33.1,63,30.15,10.0,North,6.9,-,N/A,,Mostly Cloudy,350,2013-05-13 03:56:00